Total_Precipitation_Accumulation
1.81 1.76 1.75 1.63 1.64 1.67 1.67 1.77 1.98 1.78 1.21 0.94 0.90 0.90 0.90 0.95 1.08 1.03 0.92 1.07 1.21 1.23 1.31 1.39 1.46 1.55 1.89 2.63 3.68 4.43 4.39 3.79 3.12 2.86 3.08 3.56 4.09 4.62
1.79 1.84 1.82 1.69 1.61 1.64 1.67 1.63 1.68 1.82 1.54 0.99 0.91 0.95 0.99 1.00 1.13 1.05 1.01 1.17 1.21 1.16 1.21 1.29 1.38 1.51 1.65 1.96 2.59 3.60 4.28 4.24 3.70 3.24 3.18 3.46 3.77 4.30
1.69 1.73 1.74 1.67 1.66 1.64 1.63 1.56 1.50 1.60 1.67 1.10 0.90 0.93 1.02 1.08 1.13 1.10 1.08 1.09 1.09 1.11 1.15 1.25 1.32 1.42 1.57 1.77 2.05 2.68 3.60 4.18 4.24 3.86 3.64 3.67 3.75 3.88
1.78 1.71 1.67 1.69 1.77 1.72 1.66 1.56 1.47 1.43 1.58 1.39 1.02 0.98 1.05 1.12 1.18 1.22 1.22 1.20 1.14 1.23 1.25 1.28 1.34 1.38 1.52 1.69 1.87 2.17 2.77 3.58 4.14 4.17 3.89 3.69 3.58 3.69
2.02 1.98 1.89 1.84 1.90 1.88 1.79 1.63 1.49 1.40 1.42 1.45 1.19 1.03 1.09 1.18 1.31 1.33 1.31 1.29 1.21 1.30 1.34 1.38 1.41 1.40 1.45 1.57 1.74 1.94 2.20 2.62 3.24 3.87 4.13 3.96 3.66 3.58
2.19 2.13 2.14 2.11 2.06 2.02 2.00 1.78 1.57 1.51 1.46 1.49 1.34 1.15 1.10 1.17 1.43 1.56 1.54 1.46 1.38 1.27 1.33 1.38 1.46 1.46 1.45 1.45 1.52 1.68 1.94 2.32 2.77 3.38 3.98 4.13 3.83 3.61
1.98 1.91 1.98 2.16 2.24 2.25 2.25 2.07 1.88 1.85 1.76 1.73 1.58 1.37 1.24 1.33 1.55 1.63 1.72 1.64 1.63 1.47 1.33 1.27 1.26 1.27 1.31 1.39 1.48 1.59 1.80 2.05 2.35 2.82 3.45 4.00 4.07 3.90
1.84 1.75 1.74 1.88 1.96 2.05 2.18 2.20 2.22 2.27 2.22 2.07 1.86 1.65 1.39 1.32 1.45 1.76 1.91 2.02 2.07 1.71 1.52 1.45 1.32 1.36 1.34 1.34 1.47 1.52 1.70 1.96 2.20 2.49 2.93 3.48 3.94 4.11
1.58 1.58 1.59 1.59 1.70 1.59 1.75 1.89 1.97 2.15 2.30 2.26 2.19 1.82 1.56 1.46 1.66 1.92 1.99 2.10 2.06 1.85 1.84 1.94 1.67 1.56 1.48 1.50 1.61 1.57 1.71 1.92 2.09 2.32 2.62 3.02 3.55 4.01
1.55 1.45 1.42 1.44 1.58 1.65 1.67 1.66 1.57 1.67 1.92 2.06 2.17 1.96 1.74 1.73 1.98 2.25 2.36 2.38 2.24 2.10 2.04 2.26 1.95 1.77 1.67 1.62 1.71 1.68 1.71 1.81 1.98 2.18 2.41 2.62 3.00 3.48
1.63 1.57 1.50 1.36 1.66 1.83 1.69 1.61 1.47 1.48 1.64 1.92 2.11 2.14 2.15 2.24 2.39 2.66 2.83 2.89 2.78 2.38 2.15 2.30 2.15 1.93 1.89 1.94 1.92 1.86 1.71 1.70 1.83 2.01 2.12 2.27 2.49 2.90
1.61 1.58 1.74 1.69 1.81 1.79 1.60 1.62 1.62 1.43 1.37 1.45 1.55 1.66 1.67 1.76 2.09 2.32 2.59 2.87 2.83 2.75 2.28 2.28 2.29 2.25 2.53 2.21 1.90 1.67 1.55 1.58 1.66 1.75 1.82 1.93 2.09 2.19
1.68 1.60 1.61 1.82 1.78 1.72 1.64 1.58 1.69 1.51 1.36 1.41 1.43 1.44 1.46 1.57 1.68 1.88 2.15 2.47 2.74 2.72 2.26 2.44 2.71 2.48 2.63 2.46 2.06 1.74 1.48 1.36 1.39 1.55 1.66 1.77 1.84 1.88
1.65 1.46 1.48 1.71 1.70 1.72 1.65 1.70 1.76 1.66 1.51 1.49 1.43 1.36 1.40 1.50 1.57 1.67 1.86 2.05 2.23 2.37 2.18 2.40 2.97 2.78 2.69 2.40 2.13 1.96 1.67 1.44 1.35 1.39 1.42 1.68 1.75 1.81
1.74 1.78 1.73 1.75 1.69 1.56 1.58 1.64 1.62 1.54 1.60 1.57 1.42 1.30 1.28 1.39 1.47 1.59 1.69 1.82 1.95 2.07 2.17 2.26 2.61 2.76 2.79 2.62 2.14 1.92 1.92 1.81 1.48 1.38 1.37 1.41 1.50 1.62
1.84 1.84 1.82 1.79 1.67 1.59 1.60 1.50 1.39 1.47 1.58 1.53 1.42 1.34 1.30 1.35 1.45 1.54 1.67 1.75 1.96 2.04 2.08 2.16 2.35 2.72 2.83 2.35 2.14 1.99 1.78 1.97 1.74 1.39 1.30 1.35 1.39 1.41
1.89 1.86 1.77 1.70 1.67 1.56 1.46 1.39 1.37 1.45 1.48 1.39 1.40 1.44 1.41 1.41 1.45 1.47 1.62 1.72 1.89 1.90 2.01 2.18 2.25 2.44 2.62 2.53 2.42 2.05 1.74 1.64 1.58 1.40 1.33 1.45 1.52 1.48
1.89 1.78 1.57 1.48 1.46 1.42 1.40 1.36 1.34 1.35 1.30 1.31 1.36 1.41 1.43 1.45 1.47 1.47 1.55 1.70 1.78 1.75 1.85 2.05 2.26 2.56 2.76 2.80 2.59 2.18 1.86 1.68 1.57 1.43 1.30 1.45 1.69 1.68
1.66 1.47 1.33 1.34 1.34 1.29 1.27 1.25 1.22 1.18 1.21 1.30 1.35 1.36 1.39 1.42 1.47 1.52 1.55 1.63 1.66 1.67 1.76 1.91 2.25 2.62 2.78 2.81 2.85 2.45 2.15 1.88 1.74 1.69 1.50 1.42 1.61 1.65
1.39 1.35 1.30 1.25 1.25 1.24 1.20 1.16 1.12 1.12 1.21 1.32 1.32 1.28 1.31 1.40 1.44 1.45 1.47 1.57 1.66 1.69 1.74 1.82 2.15 2.53 2.77 2.65 2.72 2.68 2.52 2.21 1.96 1.92 1.72 1.51 1.49 1.65
1.34 1.27 1.23 1.22 1.21 1.18 1.15 1.14 1.14 1.17 1.18 1.26 1.29 1.25 1.26 1.35 1.39 1.34 1.38 1.52 1.65 1.72 1.78 1.78 1.92 2.24 2.42 2.38 2.38 2.39 2.52 2.57 2.23 2.02 1.86 1.82 1.82 1.89
1.31 1.31 1.24 1.22 1.21 1.18 1.18 1.19 1.19 1.15 1.13 1.16 1.18 1.19 1.21 1.28 1.32 1.30 1.36 1.47 1.52 1.57 1.65 1.67 1.73 2.07 2.39 2.52 2.39 2.25 2.38 2.53 2.56 2.26 2.00 1.99 2.28 2.63
1.36 1.35 1.29 1.23 1.18 1.15 1.15 1.14 1.13 1.09 1.05 1.07 1.10 1.10 1.14 1.22 1.21 1.23 1.28 1.33 1.38 1.42 1.51 1.63 1.70 1.95 2.29 2.44 2.43 2.26 2.22 2.28 2.37 2.40 2.42 2.14 1.78 1.69